TimeEST,TemperatureF,Dew PointF,Humidity,Sea Level PressureIn,VisibilityMPH,Wind Direction,Wind SpeedMPH,Gust SpeedMPH,PrecipitationIn,Events,Conditions,WindDirDegrees,DateUTC
12:25 AM,41.0,35.6,81,29.99,7.0,SSW,4.6,-,N/A,,Overcast,210,2012-12-07 05:25:00
12:36 AM,41.0,37.4,87,29.98,5.0,SW,3.5,-,0.00,Rain,Light Rain,220,2012-12-07 05:36:00
12:53 AM,39.9,37.9,93,30.01,4.0,SSW,4.6,-,0.01,Rain,Light Rain,200,2012-12-07 05:53:00
1:53 AM,39.9,39.0,97,29.99,4.0,SSE,5.8,-,0.00,,Overcast,160,2012-12-07 06:53:00
2:19 AM,39.2,39.2,100,29.97,2.5,South,4.6,-,N/A,,Overcast,170,2012-12-07 07:19:00
2:39 AM,41.0,39.2,93,29.97,1.5,South,5.8,-,N/A,,Overcast,180,2012-12-07 07:39:00
2:53 AM,41.0,39.9,96,30.01,1.2,SSW,6.9,-,0.00,Rain,Light Rain,200,2012-12-07 07:53:00
3:53 AM,41.0,41.0,100,29.98,1.8,South,5.8,-,0.01,,Overcast,180,2012-12-07 08:53:00
4:31 AM,41.0,41.0,100,29.95,2.0,South,3.5,-,N/A,,Overcast,180,2012-12-07 09:31:00
4:53 AM,42.1,41.0,96,29.98,3.0,Calm,Calm,-,N/A,,Overcast,0,2012-12-07 09:53:00
5:37 AM,42.8,41.0,93,29.96,2.0,SW,3.5,-,N/A,,Overcast,220,2012-12-07 10:37:00
5:53 AM,42.1,41.0,96,29.97,1.0,SSE,4.6,-,N/A,,Overcast,160,2012-12-07 10:53:00
6:12 AM,42.8,41.0,93,29.97,0.8,SSW,5.8,-,N/A,,Mist,200,2012-12-07 11:12:00
7:53 AM,42.1,42.1,100,30.01,0.5,Calm,Calm,-,N/A,Fog,Fog,0,2012-12-07 12:53:00
8:03 AM,42.8,41.0,93,29.98,0.5,Calm,Calm,-,N/A,Fog,Fog,0,2012-12-07 13:03:00
8:08 AM,42.8,41.0,93,29.98,0.2,South,3.5,-,0.00,Fog-Rain,Light Rain,180,2012-12-07 13:08:00
8:19 AM,42.8,42.8,100,29.98,0.2,Calm,Calm,-,0.00,Fog-Rain,Light Rain,0,2012-12-07 13:19:00
8:38 AM,42.8,42.8,100,29.98,0.2,South,5.8,-,0.00,Fog,Fog,170,2012-12-07 13:38:00
8:51 AM,42.8,42.8,100,29.99,0.2,South,6.9,-,0.00,Fog,Fog,180,2012-12-07 13:51:00
8:53 AM,42.1,42.1,100,30.01,0.2,South,6.9,-,0.00,Fog,Fog,190,2012-12-07 13:53:00
9:53 AM,43.0,43.0,100,30.01,0.8,South,6.9,-,0.00,,Overcast,190,2012-12-07 14:53:00
10:29 AM,44.6,42.8,93,30.00,1.2,SW,4.6,-,0.01,Rain,Light Rain,220,2012-12-07 15:29:00
10:48 AM,44.6,44.6,100,30.00,2.0,SSW,3.5,-,0.01,,Overcast,210,2012-12-07 15:48:00
10:53 AM,44.1,44.1,100,30.02,2.5,SW,3.5,-,0.01,,Overcast,220,2012-12-07 15:53:00
11:02 AM,44.6,44.6,100,29.99,2.5,SSW,5.8,-,N/A,,Overcast,200,2012-12-07 16:02:00
11:10 AM,44.6,44.6,100,29.99,2.5,SSW,4.6,-,N/A,,Overcast,200,2012-12-07 16:10:00
11:22 AM,44.6,44.6,100,29.98,3.0,SSW,5.8,-,N/A,,Overcast,200,2012-12-07 16:22:00
11:40 AM,44.6,44.6,100,29.98,2.5,SSW,8.1,-,N/A,,Overcast,200,2012-12-07 16:40:00
11:53 AM,45.0,44.1,97,29.99,2.5,South,9.2,-,0.00,Rain,Light Rain,190,2012-12-07 16:53:00
12:33 PM,46.4,44.6,93,29.95,2.5,SSW,6.9,-,0.01,,Overcast,210,2012-12-07 17:33:00
12:53 PM,46.0,45.0,96,29.96,2.5,SSW,5.8,-,0.01,,Overcast,200,2012-12-07 17:53:00
1:06 PM,46.4,44.6,93,29.94,3.0,SSW,5.8,-,N/A,,Overcast,200,2012-12-07 18:06:00
1:53 PM,48.0,45.0,89,29.94,7.0,SSW,6.9,-,N/A,,Overcast,200,2012-12-07 18:53:00
2:53 PM,46.9,44.1,90,29.93,10.0,South,9.2,-,N/A,,Overcast,180,2012-12-07 19:53:00
3:53 PM,45.0,43.0,93,29.93,9.0,South,8.1,-,0.01,Rain,Light Rain,190,2012-12-07 20:53:00
4:53 PM,45.0,44.1,97,29.92,4.0,Calm,Calm,-,0.02,Rain,Light Rain,0,2012-12-07 21:53:00
5:53 PM,45.0,44.1,97,29.93,3.0,South,4.6,-,0.04,Rain,Light Rain,170,2012-12-07 22:53:00
6:19 PM,44.6,44.6,100,29.92,2.5,South,5.8,-,0.05,Rain,Light Rain,180,2012-12-07 23:19:00
6:30 PM,44.6,44.6,100,29.91,3.0,SSE,5.8,-,0.06,Rain,Light Rain,160,2012-12-07 23:30:00
6:53 PM,45.0,45.0,100,29.91,2.5,East,5.8,-,0.09,Rain,Light Rain,100,2012-12-07 23:53:00
8:16 PM,46.4,44.6,93,29.90,3.0,SSE,4.6,-,0.02,Rain,Light Rain,150,2012-12-08 01:16:00
8:29 PM,44.6,44.6,100,29.90,2.5,SSE,4.6,-,0.03,Rain,Light Rain,160,2012-12-08 01:29:00
8:53 PM,46.0,45.0,96,29.91,2.5,SE,5.8,-,0.05,Rain,Light Rain,140,2012-12-08 01:53:00
9:09 PM,44.6,44.6,100,29.87,2.5,East,5.8,-,0.02,Rain,Light Rain,90,2012-12-08 02:09:00
9:35 PM,46.4,44.6,93,29.87,3.0,ESE,5.8,-,0.06,Rain,Light Rain,120,2012-12-08 02:35:00
9:53 PM,46.0,45.0,96,29.88,3.0,ESE,6.9,-,0.08,Rain,Light Rain,110,2012-12-08 02:53:00
11:04 PM,46.4,44.6,93,29.84,5.0,SSE,6.9,-,0.01,Rain,Light Rain,150,2012-12-08 04:04:00
11:41 PM,46.4,46.4,100,29.84,5.0,SSE,4.6,-,0.02,Rain,Light Rain,160,2012-12-08 04:41:00
11:53 PM,46.9,46.0,97,29.85,3.0,SE,8.1,-,0.03,Rain,Light Rain,140,2012-12-08 04:53:00